WN4MDN Weather Reports


Display with metric or nautical units.
time (UTC)temp
F
wind
direction
speed
MPH
gust
MPH
rain 1hr
in
rain 24hr
in
rain mn
in
humidity
%
barometer
mb
20260504043056 69 343 4.0 8.0 0.00 0.00 0.00 85 1015.8
20260504042534 69 346 4.0 8.0 0.00 0.00 0.00 85 1015.8
20260504042033 69 20 4.0 8.0 0.00 0.00 0.00 86 1016.0
20260504041544 69 5 4.0 6.0 0.00 0.00 0.00 86 1016.0
20260504041032 69 336 1.0 5.0 0.00 0.00 0.00 86 1016.1
20260504040535 69 310 2.0 5.0 0.00 0.00 0.00 86 1016.2
20260504040050 69 334 2.0 7.0 0.00 0.00 0.00 86 1016.3
20260504035534 69 348 2.0 7.0 0.00 0.00 0.00 86 1016.2
20260504035033 69 324 2.0 5.0 0.00 0.00 0.00 86 1016.2
20260504034554 69 298 1.0 5.0 0.00 0.00 0.00 86 1016.3
20260504034035 69 335 1.0 3.0 0.00 0.00 0.00 86 1016.3
20260504033534 69 0 0.0 3.0 0.00 0.00 0.00 86 1016.4
20260504033056 69 320 1.0 3.0 0.00 0.00 0.00 86 1016.4
20260504032535 69 360 0.0 3.0 0.00 0.00 0.00 86 1016.4
20260504032035 69 360 1.0 4.0 0.00 0.00 0.00 86 1016.4
20260504031600 69 313 1.0 4.0 0.00 0.00 0.00 86 1016.5
20260504031033 69 326 2.0 4.0 0.00 0.00 0.00 85 1016.5
20260504030533 69 332 1.0 4.0 0.00 0.00 0.00 85 1016.5
20260504030108 69 360 1.0 4.0 0.00 0.00 0.00 85 1016.4
20260504025534 69 355 2.0 4.0 0.00 0.00 0.00 85 1016.4
20260504025036 69 334 2.0 5.0 0.00 0.00 0.00 85 1016.4
20260504024550 69 335 1.0 6.0 0.00 0.00 0.00 85 1016.5
20260504024031 69 5 3.0 7.0 0.00 0.00 0.00 85 1016.4
20260504023533 69 352 3.0 7.0 0.00 0.00 0.00 85 1016.4
20260504023043 69 9 3.0 6.0 0.00 0.00 0.00 85 1016.3
20260504022535 69 298 3.0 7.0 0.00 0.00 0.00 84 1016.2
20260504022030 69 5 3.0 8.0 0.00 0.00 0.00 84 1016.2
20260504021544 69 355 4.0 8.0 0.00 0.00 0.00 84 1016.3
20260504021033 69 9 4.0 8.0 0.00 0.00 0.00 84 1016.3
20260504020533 69 13 4.0 8.0 0.00 0.00 0.00 85 1016.1
20260504020044 69 39 4.0 8.0 0.00 0.00 0.00 84 1015.9
20260504015533 69 21 4.0 8.0 0.00 0.00 0.00 84 1015.9
20260504015035 69 360 3.0 5.0 0.00 0.00 0.00 84 1016.0
20260504014546 69 328 2.0 7.0 0.00 0.00 0.00 84 1016.1
20260504014032 69 349 4.0 9.0 0.00 0.00 0.00 84 1016.0
20260504013533 69 19 5.0 9.0 0.00 0.00 0.00 84 1016.0
20260504013045 69 24 4.0 9.0 0.00 0.00 0.00 84 1016.0
20260504012533 69 42 4.0 8.0 0.00 0.00 0.00 84 1015.9
20260504012036 69 24 3.0 8.0 0.00 0.00 0.00 84 1015.9
20260504011545 69 360 4.0 9.0 0.00 0.00 0.00 84 1015.9
20260504011039 69 5 4.0 9.0 0.00 0.00 0.00 84 1015.8
20260504010535 69 16 5.0 9.0 0.00 0.00 0.00 85 1015.8
20260504010044 69 10 5.0 9.0 0.00 0.00 0.00 85 1015.7
20260504005535 69 28 2.0 5.0 0.00 0.00 0.00 85 1015.9
20260504005038 69 10 2.0 8.0 0.00 0.00 0.00 85 1015.9
20260504004549 69 360 3.0 8.0 0.00 0.00 0.00 85 1015.8
20260504004035 69 355 3.0 8.0 0.00 0.00 0.00 86 1015.8
20260504003536 69 26 3.0 8.0 0.00 0.00 0.00 86 1015.7
20260504003046 69 10 3.0 8.0 0.00 0.00 0.00 86 1015.7
20260504002535 69 17 3.0 7.0 0.00 0.00 0.00 86 1015.7
20260504002035 69 19 1.0 5.0 0.00 0.00 0.00 85 1015.8
20260504001550 69 342 1.0 3.0 0.00 0.00 0.00 86 1015.6
20260504001035 69 5 1.0 4.0 0.00 0.00 0.00 85 1015.6
20260504000535 69 318 1.0 5.0 0.00 0.00 0.00 85 1015.4
20260504000106 69 352 2.0 5.0 0.00 0.00 0.00 85 1015.4
20260503235535 69 10 3.0 5.0 0.00 0.00 0.00 85 1015.4
20260503235037 69 26 3.0 5.0 0.00 0.00 0.00 85 1015.3
20260503234544 69 5 3.0 7.0 0.00 0.00 0.00 85 1015.3
20260503234034 69 11 2.0 8.0 0.00 0.00 0.00 85 1015.3
20260503233535 69 337 3.0 8.0 0.00 0.00 0.00 84 1015.3
20260503233048 69 14 4.0 9.0 0.00 0.00 0.00 84 1015.3
20260503232536 69 17 4.0 10.0 0.00 0.00 0.00 84 1015.2
20260503232035 69 21 5.0 10.0 0.00 0.00 0.00 85 1015.3
20260503231546 69 38 4.0 9.0 0.00 0.00 0.00 85 1015.2
20260503231036 69 34 4.0 8.0 0.00 0.00 0.00 86 1015.2
20260503230536 69 36 3.0 9.0 0.00 0.00 0.00 86 1015.2
20260503230048 69 33 4.0 10.0 0.00 0.00 0.00 86 1015.1
20260503225534 69 43 5.0 10.0 0.00 0.00 0.00 87 1015.1
20260503225037 69 44 6.0 10.0 0.00 0.00 0.00 86 1015.2
20260503224548 69 24 5.0 11.0 0.00 0.00 0.00 87 1015.2
20260503224036 69 34 6.0 11.0 0.00 0.00 0.00 87 1015.2
20260503223536 69 30 4.0 10.0 0.00 0.00 0.00 87 1015.2
20260503223051 69 18 5.0 10.0 0.00 0.00 0.00 87 1015.2
20260503222535 69 12 6.0 9.0 0.00 0.00 0.00 87 1015.3
20260503222032 69 41 5.0 9.0 0.00 0.00 0.00 86 1015.2
20260503221541 69 41 4.0 9.0 0.00 0.00 0.00 86 1015.4
20260503221032 69 42 3.0 10.0 0.00 0.00 0.00 86 1015.5
20260503220534 69 42 4.0 10.0 0.00 0.00 0.00 85 1015.6
20260503220046 69 65 5.0 10.0 0.00 0.00 0.00 85 1015.6
20260503215535 69 5 6.0 10.0 0.00 0.00 0.00 84 1015.6
20260503215038 69 20 5.0 11.0 0.00 0.00 0.00 84 1015.6
20260503214540 69 57 6.0 11.0 0.00 0.00 0.00 84 1015.6
20260503214036 69 44 4.0 12.0 0.00 0.00 0.00 84 1015.5
20260503213536 69 19 6.0 12.0 0.00 0.00 0.00 83 1015.5
20260503213043 69 22 5.0 12.0 0.00 0.00 0.00 84 1015.4
20260503212539 69 34 7.0 12.0 0.00 0.00 0.00 85 1015.3
20260503212033 69 46 7.0 10.0 0.00 0.00 0.00 85 1015.3
20260503211547 69 5 4.0 9.0 0.00 0.00 0.00 85 1015.4
20260503211034 69 27 4.0 10.0 0.00 0.00 0.00 85 1015.3
20260503210535 69 16 7.0 10.0 0.00 0.00 0.00 84 1015.4
20260503210043 69 43 5.0 11.0 0.00 0.00 0.00 85 1015.3
20260503205536 69 13 6.0 11.0 0.00 0.00 0.00 85 1015.3
20260503205038 69 53 6.0 11.0 0.00 0.00 0.00 85 1015.3
20260503204546 69 31 5.0 11.0 0.00 0.00 0.00 84 1015.4
20260503204035 69 355 6.0 12.0 0.00 0.00 0.00 84 1015.6
20260503203535 69 9 8.0 12.0 0.00 0.00 0.00 84 1015.7
20260503203045 69 9 5.0 11.0 0.00 0.00 0.00 85 1015.7
20260503202535 69 15 6.0 11.0 0.00 0.00 0.00 85 1015.8
20260503202035 69 5 4.0 11.0 0.00 0.00 0.00 86 1015.8
20260503201544 68 5 6.0 11.0 0.00 0.00 0.00 86 1015.9
20260503201038 68 9 4.0 8.0 0.00 0.00 0.00 87 1016.0
20260503200535 68 24 4.0 9.0 0.00 0.00 0.00 87 1015.9
20260503200046 68 5 4.0 9.0 0.00 0.00 0.00 87 1016.1
20260503195534 69 5 4.0 9.0 0.00 0.00 0.00 86 1016.2
20260503195034 69 30 5.0 9.0 0.00 0.00 0.00 86 1016.2
20260503194547 69 338 4.0 9.0 0.00 0.00 0.00 85 1016.1
20260503194036 69 355 4.0 9.0 0.00 0.00 0.00 86 1016.2
20260503193536 68 350 4.0 9.0 0.00 0.00 0.00 86 1016.3
20260503193046 68 331 4.0 9.0 0.00 0.00 0.00 86 1016.4
20260503192535 68 9 4.0 9.0 0.00 0.00 0.00 86 1016.3
20260503192035 68 5 3.0 9.0 0.00 0.00 0.00 86 1016.4
20260503191544 68 335 3.0 12.0 0.00 0.00 0.00 87 1016.4
20260503191033 68 341 6.0 12.0 0.00 0.00 0.00 87 1016.4
20260503190533 68 23 6.0 15.0 0.00 0.00 0.00 86 1016.4
20260503190051 68 5 9.0 15.0 0.00 0.00 0.00 86 1016.4
20260503185533 69 360 4.0 11.0 0.00 0.00 0.00 86 1016.3
20260503185033 69 9 6.0 11.0 0.00 0.00 0.00 86 1016.4
20260503184602 69 351 5.0 12.0 0.00 0.00 0.00 85 1016.4
20260503184034 69 346 6.0 14.0 0.00 0.00 0.00 85 1016.5
20260503183532 69 19 7.0 14.0 0.00 0.00 0.00 84 1016.7
20260503183050 69 345 7.0 13.0 0.00 0.00 0.00 84 1016.8
20260503182533 70 360 6.0 13.0 0.00 0.00 0.00 84 1016.7
20260503182032 70 346 7.0 13.0 0.00 0.00 0.00 83 1016.7
20260503181551 70 5 7.0 12.0 0.00 0.00 0.00 84 1016.7
20260503181034 70 5 6.0 13.0 0.00 0.00 0.00 84 1016.7
20260503180535 70 11 7.0 13.0 0.00 0.00 0.00 85 1016.8
20260503180045 69 19 7.0 12.0 0.00 0.00 0.00 86 1016.9
20260503175532 69 351 4.0 11.0 0.00 0.00 0.00 86 1017.2
20260503175035 69 342 5.0 11.0 0.00 0.00 0.00 86 1017.1
20260503174545 69 23 6.0 11.0 0.00 0.00 0.00 86 1017.2
20260503174034 69 352 4.0 14.0 0.00 0.00 0.00 86 1017.2
20260503173536 69 13 7.0 14.0 0.00 0.00 0.00 86 1017.2
20260503173041 69 352 8.0 14.0 0.00 0.00 0.00 86 1017.1
20260503172535 69 19 7.0 14.0 0.00 0.00 0.00 87 1017.0
20260503172037 69 355 6.0 12.0 0.00 0.00 0.00 87 1017.1
20260503171603 68 25 7.0 12.0 0.00 0.00 0.00 88 1017.2
20260503171032 68 19 8.0 14.0 0.00 0.00 0.00 88 1017.2
20260503170534 68 13 5.0 14.0 0.00 0.00 0.00 88 1017.3
20260503150533 69 346 6.0 10.0 0.00 0.00 0.00 88 1017.3
20260503131035 66 305 2.0 11.0 0.00 0.00 0.00 90 1016.5
20260503130533 66 15 7.0 11.0 0.00 0.00 0.00 91 1016.4
20260503110533 65 304 2.0 9.0 0.00 0.00 0.00 92 1014.9
20260503081545 67 321 3.0 8.0 0.00 0.00 0.00 92 1013.9
20260503081033 67 309 4.0 8.0 0.00 0.00 0.00 92 1013.9
20260503080531 67 324 4.0 8.0 0.00 0.00 0.00 92 1013.9
20260503072533 66 292 2.0 3.0 0.00 0.00 0.00 92 1013.6
20260503072032 67 278 1.0 3.0 0.00 0.00 0.00 92 1013.6
20260503071604 67 278 0.0 2.0 0.00 0.00 0.00 92 1013.5
20260503071032 67 0 0.0 0.0 0.00 0.00 0.00 92 1013.4
20260503070532 67 0 0.0 0.0 0.00 0.00 0.00 92 1013.5
20260503055032 68 243 3.0 5.0 0.00 0.00 0.00 91 1013.9
20260503054557 68 0 0.0 6.0 0.00 0.00 0.00 91 1013.9
20260503054033 68 0 2.0 7.0 0.00 0.00 0.00 91 1013.8
20260503053533 68 248 3.0 7.0 0.00 0.00 0.00 91 1013.9
20260503053043 68 240 3.0 8.0 0.00 0.00 0.00 91 1013.9
20260503052532 68 244 3.0 9.0 0.00 0.00 0.00 91 1014.0
20260503052031 68 247 5.0 9.0 0.00 0.00 0.00 91 1014.1
20260503051545 68 245 4.0 9.0 0.00 0.00 0.00 91 1014.2
20260503051032 68 253 4.0 8.0 0.00 0.00 0.00 91 1014.2
20260503050532 68 244 5.0 8.0 0.00 0.00 0.00 90 1014.3
20260503050046 68 248 3.0 7.0 0.00 0.00 0.00 90 1014.2
20260503045532 68 252 3.0 7.0 0.00 0.00 0.00 90 1014.2
20260503045032 68 240 1.0 4.0 0.00 0.00 0.00 90 1014.2
20260503044553 69 230 0.0 5.0 0.00 0.00 0.00 90 1014.1
20260503044033 69 239 1.0 5.0 0.00 0.00 0.00 90 1014.3
20260503043533 69 173 2.0 5.0 0.00 0.00 0.00 89 1014.2